Total_Precipitation_Accumulation
0.61 0.85 1.11 1.05 0.96 1.03 1.07 1.17 1.20 1.12 0.85 0.86 0.87 0.73 0.68 0.71 0.74 0.73 0.65 0.55 0.53 0.56 0.54 0.51 0.54 0.60 0.61 0.63 0.65 0.63 0.61 0.70 0.74 0.79 0.93 1.16 1.44 1.55 1.65 1.57 1.36 1.29 1.42 1.70
0.70 0.76 0.65 0.60 0.69 0.89 1.04 1.24 1.21 1.09 0.77 0.72 0.73 0.63 0.55 0.55 0.62 0.58 0.56 0.55 0.48 0.50 0.44 0.40 0.43 0.47 0.49 0.51 0.56 0.58 0.57 0.65 0.71 0.76 0.93 1.11 1.27 1.27 1.44 1.57 1.53 1.44 1.42 1.57
0.68 0.63 0.50 0.54 0.69 0.92 1.03 1.05 1.02 1.00 0.82 0.70 0.66 0.70 0.53 0.47 0.50 0.47 0.45 0.47 0.43 0.44 0.43 0.41 0.39 0.41 0.42 0.42 0.40 0.43 0.48 0.55 0.66 0.81 1.02 1.26 1.48 1.55 1.58 1.50 1.58 1.58 1.49 1.54
0.61 0.51 0.49 0.61 0.69 0.77 0.96 0.70 0.64 0.71 0.91 0.97 0.78 0.96 0.66 0.53 0.55 0.48 0.42 0.40 0.38 0.40 0.42 0.47 0.43 0.44 0.41 0.38 0.35 0.38 0.47 0.60 0.81 1.00 1.23 1.49 1.70 1.75 1.61 1.60 1.64 1.53 1.44 1.43
0.55 0.46 0.47 0.60 0.57 0.55 0.65 0.55 0.53 0.60 0.79 0.79 0.60 0.73 0.65 0.52 0.61 0.55 0.48 0.43 0.39 0.38 0.41 0.43 0.41 0.44 0.45 0.44 0.45 0.49 0.67 0.89 1.15 1.36 1.63 1.92 1.90 1.78 1.67 1.63 1.62 1.56 1.54 1.50
0.46 0.38 0.43 0.45 0.44 0.43 0.46 0.54 0.60 0.67 0.86 0.86 0.53 0.61 0.67 0.51 0.52 0.53 0.51 0.46 0.39 0.35 0.41 0.50 0.56 0.65 0.70 0.73 0.88 1.06 1.30 1.46 1.54 1.67 1.83 1.95 1.90 1.89 1.83 1.65 1.56 1.56 1.60 1.65
0.49 0.40 0.34 0.32 0.44 0.44 0.47 0.80 1.16 1.20 1.17 0.84 0.43 0.62 0.68 0.47 0.39 0.40 0.43 0.38 0.32 0.36 0.46 0.62 0.80 0.93 1.06 1.20 1.36 1.50 1.65 1.79 1.73 1.69 1.76 1.81 1.78 1.75 1.73 1.67 1.60 1.53 1.53 1.58
0.56 0.53 0.34 0.27 0.35 0.46 0.50 0.74 1.20 1.34 1.12 0.78 0.57 0.83 0.77 0.54 0.40 0.31 0.26 0.25 0.36 0.51 0.64 0.77 0.86 0.98 1.15 1.33 1.41 1.43 1.52 1.63 1.61 1.57 1.56 1.55 1.59 1.59 1.53 1.45 1.42 1.46 1.54 1.52
0.41 0.42 0.22 0.21 0.25 0.34 0.49 0.54 0.59 0.85 0.72 0.72 0.75 0.89 0.79 0.52 0.43 0.35 0.30 0.33 0.49 0.71 0.92 1.08 1.20 1.32 1.35 1.40 1.49 1.42 1.43 1.49 1.50 1.46 1.41 1.43 1.42 1.47 1.46 1.37 1.38 1.36 1.35 1.27
0.25 0.32 0.21 0.19 0.25 0.28 0.39 0.53 0.69 1.01 1.15 1.13 1.02 1.01 0.90 0.67 0.57 0.57 0.64 0.73 0.77 0.88 1.15 1.46 1.74 1.90 1.72 1.46 1.40 1.40 1.34 1.35 1.45 1.46 1.40 1.39 1.45 1.45 1.42 1.41 1.35 1.32 1.32 1.22
0.19 0.31 0.29 0.26 0.30 0.32 0.40 0.57 0.72 0.94 1.06 1.35 1.54 1.45 1.09 1.06 1.04 1.07 1.15 1.19 1.20 1.30 1.29 1.46 1.69 1.89 1.80 1.47 1.25 1.30 1.37 1.38 1.40 1.40 1.42 1.41 1.39 1.28 1.27 1.29 1.26 1.22 1.20 1.23
0.16 0.28 0.32 0.27 0.28 0.35 0.51 0.64 0.83 1.19 1.12 1.10 1.39 1.45 1.13 1.10 1.11 1.18 1.33 1.40 1.38 1.29 1.20 1.20 1.27 1.36 1.43 1.29 1.09 1.07 1.23 1.33 1.33 1.32 1.36 1.34 1.24 1.15 1.14 1.13 1.04 0.92 0.86 0.85
0.21 0.34 0.47 0.48 0.55 0.56 0.72 0.77 0.67 0.71 0.84 0.98 1.26 1.17 0.78 0.70 0.87 1.03 1.16 1.24 1.16 1.11 1.21 1.18 1.11 1.05 1.09 1.07 1.00 0.98 1.12 1.27 1.33 1.32 1.22 1.12 1.06 1.04 1.06 0.97 0.90 0.85 0.75 0.69
0.21 0.28 0.39 0.58 0.60 0.59 0.76 0.85 0.72 0.69 0.85 0.82 0.79 0.71 0.54 0.56 0.71 0.79 0.83 0.82 0.82 0.88 0.93 0.90 0.86 0.79 0.77 0.81 0.86 0.92 1.05 1.14 1.27 1.39 1.31 1.18 1.09 1.06 1.02 0.96 0.91 0.84 0.79 0.78
0.18 0.19 0.18 0.20 0.23 0.31 0.51 0.61 0.53 0.46 0.46 0.55 0.49 0.49 0.53 0.60 0.67 0.63 0.58 0.57 0.55 0.56 0.54 0.56 0.61 0.60 0.54 0.53 0.54 0.64 0.80 0.96 1.16 1.40 1.40 1.26 1.20 1.16 1.03 0.95 0.93 0.90 0.91 0.86
0.15 0.17 0.15 0.14 0.14 0.19 0.31 0.35 0.29 0.23 0.29 0.39 0.43 0.50 0.54 0.61 0.67 0.61 0.51 0.45 0.38 0.36 0.38 0.41 0.44 0.50 0.42 0.36 0.36 0.39 0.50 0.71 0.88 1.08 1.17 1.15 1.06 0.96 0.93 0.93 0.89 0.83 0.82 0.77
0.15 0.18 0.21 0.15 0.14 0.18 0.27 0.25 0.25 0.29 0.30 0.33 0.44 0.55 0.58 0.70 0.88 0.78 0.60 0.50 0.38 0.31 0.31 0.34 0.37 0.42 0.43 0.40 0.36 0.38 0.44 0.53 0.65 0.82 0.94 0.94 0.89 0.80 0.79 0.83 0.80 0.73 0.66 0.66
0.12 0.21 0.30 0.26 0.30 0.41 0.36 0.26 0.33 0.44 0.39 0.38 0.47 0.54 0.62 0.93 1.13 0.76 0.53 0.48 0.40 0.32 0.31 0.32 0.35 0.36 0.36 0.37 0.38 0.39 0.40 0.42 0.48 0.57 0.65 0.68 0.69 0.67 0.67 0.68 0.68 0.69 0.64 0.58
0.08 0.21 0.37 0.39 0.42 0.58 0.48 0.28 0.39 0.47 0.43 0.35 0.45 0.51 0.52 0.55 0.49 0.32 0.22 0.23 0.26 0.22 0.21 0.21 0.21 0.22 0.24 0.26 0.29 0.32 0.36 0.39 0.37 0.40 0.44 0.49 0.52 0.56 0.60 0.62 0.63 0.73 0.72 0.66
0.09 0.16 0.32 0.37 0.41 0.46 0.43 0.24 0.28 0.39 0.47 0.24 0.26 0.29 0.23 0.18 0.18 0.19 0.18 0.13 0.12 0.12 0.12 0.13 0.12 0.11 0.14 0.18 0.22 0.25 0.31 0.36 0.36 0.37 0.38 0.43 0.44 0.47 0.53 0.60 0.61 0.59 0.58 0.61
0.13 0.18 0.27 0.30 0.32 0.26 0.21 0.21 0.25 0.46 0.47 0.20 0.18 0.17 0.14 0.13 0.12 0.16 0.19 0.14 0.10 0.09 0.09 0.10 0.10 0.11 0.13 0.16 0.21 0.24 0.30 0.33 0.34 0.40 0.41 0.42 0.43 0.45 0.48 0.47 0.43 0.44 0.49 0.49
0.18 0.25 0.27 0.28 0.32 0.27 0.19 0.22 0.30 0.29 0.19 0.17 0.18 0.17 0.15 0.12 0.10 0.11 0.14 0.11 0.09 0.08 0.08 0.08 0.10 0.13 0.12 0.14 0.19 0.25 0.32 0.32 0.33 0.35 0.35 0.34 0.34 0.35 0.37 0.39 0.37 0.35 0.41 0.44
0.19 0.24 0.30 0.33 0.31 0.25 0.23 0.25 0.24 0.22 0.20 0.18 0.21 0.18 0.15 0.13 0.11 0.10 0.11 0.09 0.08 0.08 0.09 0.10 0.12 0.18 0.21 0.18 0.20 0.25 0.31 0.36 0.35 0.33 0.28 0.29 0.28 0.30 0.30 0.32 0.36 0.39 0.39 0.41
0.17 0.15 0.22 0.27 0.22 0.20 0.21 0.21 0.21 0.21 0.20 0.17 0.18 0.16 0.16 0.16 0.15 0.13 0.11 0.11 0.09 0.08 0.09 0.12 0.17 0.21 0.25 0.24 0.26 0.29 0.32 0.33 0.33 0.30 0.27 0.26 0.26 0.27 0.26 0.29 0.33 0.35 0.36 0.37
0.17 0.17 0.20 0.23 0.19 0.18 0.17 0.16 0.15 0.15 0.15 0.15 0.15 0.14 0.15 0.16 0.16 0.14 0.11 0.11 0.10 0.09 0.08 0.12 0.18 0.21 0.23 0.25 0.30 0.34 0.32 0.28 0.28 0.27 0.27 0.24 0.27 0.28 0.26 0.25 0.28 0.33 0.36 0.43
0.13 0.17 0.22 0.23 0.17 0.18 0.16 0.13 0.11 0.12 0.12 0.12 0.14 0.13 0.12 0.13 0.13 0.12 0.12 0.14 0.12 0.10 0.11 0.13 0.15 0.18 0.20 0.23 0.28 0.29 0.28 0.24 0.24 0.27 0.26 0.25 0.24 0.24 0.26 0.28 0.26 0.30 0.34 0.44